Location: St Andrew
(49.4460°N, 2.5750°W)
Time: 08:12:20
(UTC+00:00)

Daily predictions for brighter satellites

Satellite Brightness Start Highest point End
(mag) Time Altitude Azimuth Time Altitude Azimuth Time Altitude Azimuth
FENGYUN 3A 3.7 18:52:00 10° SSE 18:57:24 76° ENE 19:02:49 10° NNW
Helios 1A 3.8 18:59:41 10° SE 19:03:22 31° ENE 19:07:06 10° N
Meteor 1-24 Rocket 3.7 18:58:35 10° N 19:04:02 73° ENE 19:09:38 10° SSE
Lacrosse 5 2.9 18:59:58 10° S 19:04:03 25° SE 19:08:07 10° ENE
Cosmos 2263 Rocket 3.8 18:59:01 10° WSW 19:04:15 38° NW 19:09:30 10° NNE
Cosmos 2098 4.1 19:02:42 10° S 19:05:53 86° ESE 19:08:53 10° N
Cosmos 1818 3.9 19:01:33 10° NW 19:06:55 53° NE 19:12:13 10° ESE
Lacrosse 4 Rocket 1.4 19:03:00 10° SSW 19:06:57 55° ESE 19:10:56 10° NE
Cosmos 1378 3.2 19:03:47 10° N 19:07:35 89° W 19:11:21 10° S
SAR-Lupe-4 4.4 19:05:00 10° SE 19:08:13 33° ENE 19:11:29 10° N
Cosmos 1937 Rocket 3.6 19:05:13 10° S 19:10:21 56° ESE 19:15:33 10° NNE
Meteor 2-5 Rocket 4.4 19:07:51 10° NNW 19:13:29 62° W 19:19:10 10° S
Cosmos 2082 Rocket 2.8 19:09:42 10° NNW 19:15:05 40° NE 19:20:25 10° ESE
CZ-4B DEB 4.0 19:12:43 10° ESE 19:15:13 23° ENE 19:17:44 10° NNE
Cosmos 1758 4.4 19:14:47 10° SE 19:17:59 24° E 19:21:12 10° NE
SeaSat 1 3.4 19:13:15 10° S 19:18:02 49° WSW 19:22:51 10° NW
Cosmos 2298 Rocket 4.0 19:16:25 10° SSW 19:21:44 83° ESE 19:27:05 10° NNE
Resurs 1-3 3.6 19:18:41 10° SSE 19:23:04 80° ENE 19:27:29 10° NNW
Cosmos 1934 Rocket 3.9 19:17:49 10° S 19:23:55 71° E 19:29:58 10° NNE
HJ-1C 4.2 19:21:22 10° S 19:24:42 55° W 19:28:05 10° NNW
H-2A R/B 2.9 19:23:17 10° S 19:27:10 79° WSW 19:31:09 10° NNW
Cosmos 1953 3.2 19:24:13 10° SSE 19:27:41 28° E 19:31:11 10° NNE
SAR-Lupe-1 4.4 19:24:16 10° SE 19:27:42 46° ENE 19:31:10 10° N
Cosmos 1939 Rocket 3.9 19:24:29 11° SE 19:27:52 29° ENE 19:31:28 10° N
SL-27 R/B 3.1 19:26:04 10° NNW 19:29:35 59° WSW 19:33:07 10° S
Cosmos 482 Debris 2.8 19:32:18 10° WNW 19:34:10 50° NNE 19:34:51 28° ENE
Meteor 1-29 4.0 19:31:42 10° NE 19:34:38 25° E 19:37:34 10° SSE
Meteor 1-4 Rocket 3.4 19:31:54 10° SSE 19:34:53 27° E 19:37:53 10° NE
COSMOS 2487 3.2 19:32:53 10° N 19:36:13 35° ENE 19:38:18 19° ESE
USA 215 4.0 19:31:15 10° ENE 19:36:49 29° SE 19:42:21 10° S
Cosmos 1408 Rocket 4.1 19:33:57 10° N 19:38:10 39° ENE 19:41:49 13° SE
Cosmos 1544 3.4 19:34:55 10° SSE 19:38:23 42° E 19:41:53 10° NNE
Cosmos 1844 3.8 19:35:26 10° SSW 19:41:13 90° NW 19:47:05 10° NNE
Okean 3 Rocket 3.5 19:40:06 10° N 19:44:31 89° W 19:48:55 10° S
Cosmos 1821 Rocket 4.4 19:38:59 10° SSW 19:45:21 69° WNW 19:51:42 10° N
Lacrosse 5 rocket 1.7 19:41:51 10° NW 19:45:46 47° NNE 19:48:00 21° E
Meteor 1-21 Rocket 4.3 19:40:45 10° N 19:46:32 65° ENE 19:52:21 10° SSE
Cosmos 1766 3.5 19:45:26 10° SSW 19:49:18 72° W 19:53:13 10° N
CZ-3B DEB 2.6 19:39:24 10° SW 19:49:35 68° SSE 19:53:50 13° ENE
RESURS DK-1 3.8 19:48:31 10° NW 19:52:19 36° WSW 19:56:07 10° S
SJ-11-01 4.4 19:49:38 12° SSE 19:53:53 60° ENE 19:58:33 10° N
Cosmos 1271 Rocket 3.8 19:54:27 25° ESE 19:54:56 25° E 19:58:18 10° NE
Cosmos 2100 Rocket 4.3 19:57:15 10° SSE 20:03:12 45° E 20:09:14 10° NNE
Cosmos 1605 Rocket 4.1 19:56:57 10° S 20:03:14 87° W 20:09:39 10° N
Cosmos 158 Rocket 3.9 19:58:44 10° NNW 20:03:49 72° ENE 20:07:19 21° SSE
BREEZE-M DEB 4.1 20:03:38 10° WSW 20:07:40 83° SSE 20:08:30 45° E
Fregat R/B Cluster 11 4.2 20:03:37 10° SSW 20:08:30 47° SE 20:11:43 10° NE
GP-B 3.0 20:07:04 10° S 20:11:30 83° E 20:15:58 10° N
USA 267 3.4 20:08:04 23° E 20:12:22 66° NNE 20:18:51 10° WNW
Abrixas 3.8 20:10:35 10° W 20:13:02 26° SSW 20:13:19 25° SSW
Resurs 01 Rocket 3.6 20:09:55 10° SSW 20:13:46 29° W 20:17:41 10° NW
H-2A R/B 3.5 20:12:49 20° ENE 20:13:56 22° ENE 20:17:56 10° N
Cosmos 2151 4.1 20:11:08 10° NNE 20:14:44 26° ENE 20:14:46 26° ENE
Cosmos 1674 2.6 20:12:14 10° N 20:16:01 89° ENE 20:18:03 26° S
USA 186 3.5 20:15:22 11° SSW 20:17:03 21° W 20:18:53 10° NW
Cosmos 1076 Rocket 3.9 20:13:28 10° NNW 20:17:41 62° W 20:21:52 10° S
Cosmos 1766 Rocket 3.7 20:16:35 10° NNW 20:21:05 80° W 20:24:26 18° S
Envisat 3.1 20:16:40 12° S 20:21:27 76° WSW 20:26:34 10° NNW
Cosmos 1802 Rocket 4.1 20:16:58 17° SSE 20:21:33 48° E 20:27:27 10° NNE
Cosmos 2058 4.3 20:18:18 10° NNE 20:21:19 24° ENE 20:21:19 24° ENE
Cosmos 1844 Rocket 4.1 20:17:02 10° WSW 20:22:19 39° NW 20:27:37 10° NNE
CZ-2C R/B 4.5 20:21:06 10° NNW 20:22:37 14° WNW 20:23:43 10° WSW
Cosmos 1805 3.9 20:21:00 10° SSW 20:24:49 55° WNW 20:28:42 10° N
Cosmos 1833 Rocket 2.8 20:22:44 10° NNW 20:28:22 75° WSW 20:31:43 25° SSE
Cosmos 1125 Rocket 3.3 20:23:48 10° SSW 20:28:59 76° ESE 20:34:13 10° NNE
Cosmos 1048 Rocket 4.3 20:23:55 10° NNW 20:29:00 63° WSW 20:32:29 20° S
Helios 1B rocket 2.8 20:25:39 10° N 20:29:46 64° WNW 20:33:51 10° SSW
Cosmos 2061 Rocket 4.0 20:24:41 10° S 20:30:57 62° E 20:37:19 10° NNE
Timation 2 Rocket 4.0 20:24:47 10° NNW 20:31:13 79° WSW 20:34:51 26° SSE
Geosat 4.3 20:26:17 10° NNE 20:31:18 67° NW 20:36:17 10° SW
NOAA 11 4.3 20:31:24 37° ESE 20:33:16 55° ENE 20:38:38 10° N
Cosmos 2278 Rocket 2.6 20:27:51 10° SW 20:33:30 65° WNW 20:39:10 10° NNE
Cosmos 1340 Rocket 2.7 20:29:58 10° NNW 20:34:03 89° WNW 20:35:08 48° S
Cosmos 1470 2.6 20:37:24 47° S 20:38:30 82° E 20:42:30 10° NNE
YAOGAN 6 2.5 20:39:37 69° S 20:40:02 88° WSW 20:43:48 10° NNW
Meteor 1-11 4.3 20:37:48 10° N 20:43:19 57° ENE 20:44:37 46° ESE
MetOp-B 4.1 20:41:41 44° SE 20:43:19 67° ENE 20:48:39 10° N
Cosmos-2242 3.0 20:43:07 25° SSW 20:45:33 81° W 20:49:50 10° N
ERS-1 Rocket 3.0 20:43:29 33° S 20:45:46 80° WSW 20:50:51 10° NNW
Lacrosse 4 Rocket 3.8 20:42:42 10° W 20:45:58 23° NW 20:49:15 10° NNE
Cosmos 2344 4.0 20:38:25 10° SW 20:46:09 71° NW 20:55:31 10° NE
Lacrosse 5 1.8 20:41:28 10° WSW 20:46:33 84° NW 20:49:30 26° NE
Cosmos 2297 3.6 20:40:56 10° SSW 20:46:39 83° ESE 20:52:26 10° NNE
SPOT 5 3.1 20:49:28 51° SE 20:50:39 66° ENE 20:55:57 10° N
Cosmos 1743 Rocket 3.6 20:48:31 10° NNW 20:52:58 77° W 20:53:54 54° S
Cosmos 1500 Rocket 3.3 20:51:13 10° N 20:55:35 84° E 20:55:42 82° SE
Cosmos 1626 4.1 20:53:28 10° N 20:55:01 20° NNE 20:55:01 20° NNE
Cosmos 2251 Rocket 3.4 20:51:36 10° NNW 20:56:57 77° ENE 20:57:51 61° SE
SPOT 1/Viking Rocket 3.7 20:56:47 52° E 20:57:09 53° ENE 21:02:15 10° N
H-2A R/B 3.4 20:58:43 26° NE 20:58:43 26° NE 21:01:11 10° N
Cosmos 2082 Rocket 3.2 20:53:54 10° NW 20:59:13 41° WSW 21:02:24 22° SSW
Cosmos 1733 3.6 20:58:35 51° SW 20:59:16 61° WNW 21:03:09 10° N
Cosmos 1459 Rocket 4.0 20:54:51 10° SSW 21:01:08 78° W 21:07:21 10° N
Cosmos 1184 Rocket 3.9 20:59:24 10° NNW 21:01:57 45° NW 21:01:57 45° NW
Cosmos 1953 4.3 21:00:30 10° SW 21:04:04 29° WNW 21:07:40 10° N
Cosmos 2173 Rocket 4.1 20:58:01 10° SSW 21:04:11 76° W 21:10:29 10° N
Cosmos 1328 4.0 21:01:31 10° NNW 21:05:15 67° WNW 21:05:15 67° WNW
Meteor 1-16 Rocket 4.2 21:06:13 54° SSE 21:07:30 72° E 21:13:26 10° NNE
SL-14 R/B 3.7 21:03:50 10° NNW 21:07:04 59° NNW 21:07:04 59° NNW
Cosmos 1864 Rocket 4.5 21:07:10 54° SE 21:08:16 63° E 21:14:30 10° NNE
Terra 2.9 21:20:42 34° NE 21:20:42 34° NE 21:24:01 10° N
USA 215 3.1 21:13:51 10° ENE 21:20:27 83° SSE 21:27:00 10° SW
Lacrosse 5 rocket 2.8 21:21:18 10° WNW 21:23:43 29° W 21:23:43 29° W
ARGOS 3.1 21:24:49 69° SSW 21:25:20 76° WSW 21:30:44 10° NNW
Cosmos 1867 3.8 21:23:59 10° SW 21:29:26 70° NW 21:34:55 10° NE
Cosmos 1356 Rocket 4.4 21:25:53 10° NNW 21:29:25 43° WNW 21:29:25 43° WNW
Cosmos 1842 Rocket 4.2 21:30:56 54° NW 21:30:56 54° NW 21:34:40 10° N
Cosmos 2016 Rocket 4.3 21:32:00 26° SSW 21:35:33 62° WNW 21:41:40 10° N
Cosmos 1725 Rocket 4.0 21:40:48 59° SSW 21:41:59 77° W 21:48:14 10° N
MOS 1-B Rocket 4.5 21:43:02 55° S 21:45:01 82° WSW 21:52:03 10° NNW
Tsikada Rocket 4.4 21:44:09 10° NNW 21:50:10 56° W 21:51:20 49° SW
H-2A R/B 2.4 21:53:26 65° WNW 21:53:26 65° WNW 21:58:14 10° NNW
USA 267 3.5 21:55:24 55° SW 21:55:31 55° SW 22:01:56 10° WNW
Cosmos 2369 Rocket 4.1 22:01:26 18° NE 22:01:26 18° NE 22:02:47 10° NE
CZ-3B DEB 3.0 21:56:03 10° W 22:01:17 39° NW 22:01:17 39° NW
Cosmos 2227 Rocket 4.3 22:03:12 10° N 22:06:45 16° NNE 22:07:23 16° NE
Lacrosse 5 3.4 22:25:19 10° W 22:28:46 33° NW 22:28:46 33° NW
Cosmos 1943 Rocket 4.4 22:42:04 16° NE 22:42:04 16° NE 22:43:14 10° NE
ATLAS 5 CENTAUR R/B 4.1 22:42:09 20° NNE 22:42:09 20° NNE 22:44:05 10° NE
Cosmos 2219 4.4 22:37:09 10° NNW 22:40:47 36° N 22:40:47 36° N
CZ-4C R/B 4.4 22:57:31 18° NE 22:57:31 18° NE 22:59:02 10° NE
Terra 4.1 22:59:34 21° NW 22:59:34 21° NW 23:01:36 10° NNW
USA 215 3.8 22:56:57 10° ENE 23:03:16 53° NNW 23:09:35 10° W
Cosmos 2297 Rocket 3.9 23:21:16 10° NNW 23:24:32 27° NNE 23:24:32 27° NNE
Cosmos 2369 Rocket 3.9 23:43:10 28° NNW 23:43:10 28° NNW 23:46:41 10° NNE
Cosmos 2227 Rocket 3.9 23:46:26 10° NNW 23:49:12 29° NNW 23:49:12 29° NNW
